ARG1474 SABE-SASJ

Flight info

Callsign ARG1474
Flight time N/A
Altitude 36000
Route BIVAM4B BIVAM UW8 ERE UT672 ASODO ASODO2U
Aircraft B738/M-SDE2E3FGHIRWXY/LB1

Departure

Time 2026-05-06 20:34
Airport Aeroparque Jorge Newbery (SABE)

Arrival

Time N/A
Airport Gobernador Horacio Guzman International Airport (SASJ)
Time Latitude Longitude Altitude Speed Heading
2026-05-06 19:49 -34.55822 -58.41404 26 ft 0 kts 209°
2026-05-06 20:18 -34.55803 -58.41388 26 ft 4 kts 230°
2026-05-06 20:19 -34.55793 -58.41363 26 ft 4 kts 283°
2026-05-06 20:19 -34.55796 -58.41351 26 ft 0 kts 299°
2026-05-06 20:25 -34.55793 -58.41359 30 ft 3 kts 300°
2026-05-06 20:25 -34.55772 -58.41398 26 ft 8 kts 302°
2026-05-06 20:25 -34.55741 -58.41457 28 ft 8 kts 302°
2026-05-06 20:26 -34.55723 -58.41518 30 ft 7 kts 268°
2026-05-06 20:26 -34.55750 -58.41566 30 ft 7 kts 216°
2026-05-06 20:26 -34.55783 -58.41608 26 ft 7 kts 253°
2026-05-06 20:26 -34.55770 -58.41663 28 ft 7 kts 295°
2026-05-06 20:27 -34.55749 -58.41714 29 ft 7 kts 297°
2026-05-06 20:27 -34.55727 -58.41765 29 ft 7 kts 301°
2026-05-06 20:27 -34.55688 -58.41837 25 ft 12 kts 304°
2026-05-06 20:27 -34.55641 -58.41922 29 ft 12 kts 304°
2026-05-06 20:28 -34.55594 -58.42006 26 ft 12 kts 304°
2026-05-06 20:28 -34.55546 -58.42084 28 ft 11 kts 307°
2026-05-06 20:28 -34.55499 -58.42161 30 ft 11 kts 306°
2026-05-06 20:28 -34.55454 -58.42235 27 ft 11 kts 308°
2026-05-06 20:29 -34.55412 -58.42301 26 ft 7 kts 307°
2026-05-06 20:29 -34.55403 -58.42316 26 ft 0 kts 308°
2026-05-06 20:29 -34.55395 -58.42328 27 ft 7 kts 308°
2026-05-06 20:30 -34.55370 -58.42380 26 ft 0 kts 288°
2026-05-06 20:31 -34.55370 -58.42381 26 ft 1 kts 288°
2026-05-06 20:31 -34.55362 -58.42422 29 ft 10 kts 280°
2026-05-06 20:32 -34.55378 -58.42496 31 ft 8 kts 216°
2026-05-06 20:32 -34.55413 -58.42491 26 ft 4 kts 133°
2026-05-06 20:32 -34.55417 -58.42483 26 ft 0 kts 126°
2026-05-06 20:33 -34.55473 -58.42385 27 ft 50 kts 124°
2026-05-06 20:33 -34.55832 -58.41740 25 ft 132 kts 123°
2026-05-06 20:33 -34.56465 -58.40603 219 ft 183 kts 124°
2026-05-06 20:34 -34.57215 -58.39257 1006 ft 197 kts 123°
2026-05-06 20:34 -34.57833 -58.37828 2188 ft 189 kts 104°
2026-05-06 20:34 -34.57738 -58.36212 2893 ft 201 kts 68°
2026-05-06 20:34 -34.56859 -58.34803 3262 ft 222 kts 44°
2026-05-06 20:35 -34.55556 -58.33735 3825 ft 228 kts 33°
2026-05-06 20:35 -34.54166 -58.32660 4229 ft 245 kts 32°
2026-05-06 20:35 -34.52712 -58.31534 4829 ft 248 kts 30°
2026-05-06 20:35 -34.51212 -58.30379 4831 ft 262 kts 27°
2026-05-06 20:36 -34.49654 -58.29218 4780 ft 262 kts 22°
2026-05-06 20:36 -34.47934 -58.28709 4742 ft 251 kts 356°
2026-05-06 20:36 -34.46250 -58.29111 4722 ft 247 kts 337°
2026-05-06 20:36 -34.44769 -58.30143 4894 ft 250 kts 326°
2026-05-06 20:37 -34.43298 -58.31357 5661 ft 253 kts 327°
2026-05-06 20:37 -34.41862 -58.32536 6555 ft 252 kts 326°
2026-05-06 20:37 -34.40411 -58.33726 7396 ft 253 kts 326°
2026-05-06 20:37 -34.38944 -58.34926 8161 ft 256 kts 326°
2026-05-06 20:38 -34.37456 -58.36140 8881 ft 260 kts 326°
2026-05-06 20:38 -34.35949 -58.37370 9597 ft 263 kts 326°
2026-05-06 20:38 -34.34411 -58.38621 10276 ft 268 kts 326°
2026-05-06 20:38 -34.32853 -58.39883 10916 ft 274 kts 326°
2026-05-06 20:39 -34.31202 -58.41221 11096 ft 296 kts 326°
2026-05-06 20:39 -34.29429 -58.42660 11266 ft 317 kts 326°
2026-05-06 20:39 -34.27538 -58.44191 11411 ft 336 kts 326°
2026-05-06 20:39 -34.25551 -58.45799 11673 ft 350 kts 325°
2026-05-06 20:40 -34.23509 -58.47451 12115 ft 356 kts 325°
2026-05-06 20:40 -34.21469 -58.49100 12670 ft 358 kts 325°
2026-05-06 20:40 -34.19395 -58.50775 13273 ft 360 kts 324°
2026-05-06 20:40 -34.17305 -58.52461 13869 ft 361 kts 324°
2026-05-06 20:41 -34.15301 -58.54294 14398 ft 363 kts 312°
2026-05-06 20:41 -34.13894 -58.56804 15011 ft 361 kts 294°
2026-05-06 20:41 -34.13112 -58.59689 15600 ft 363 kts 282°
2026-05-06 20:41 -34.12976 -58.62752 16126 ft 369 kts 266°
2026-05-06 20:42 -34.13337 -58.65816 16739 ft 369 kts 264°
2026-05-06 20:42 -34.13722 -58.68892 17295 ft 370 kts 264°
2026-05-06 20:42 -34.14086 -58.71978 17845 ft 371 kts 264°
2026-05-06 20:42 -34.14419 -58.75031 18345 ft 372 kts 267°
2026-05-06 20:43 -34.14215 -58.78169 18773 ft 373 kts 285°
2026-05-06 20:43 -34.13212 -58.81020 19257 ft 376 kts 299°
2026-05-06 20:43 -34.11659 -58.83576 19712 ft 381 kts 311°
2026-05-06 20:43 -34.09562 -58.85575 20177 ft 388 kts 324°
2026-05-06 20:44 -34.07230 -58.87245 20655 ft 391 kts 325°
2026-05-06 20:44 -34.04874 -58.88918 21067 ft 393 kts 325°
2026-05-06 20:44 -34.02518 -58.90608 21483 ft 395 kts 325°
2026-05-06 20:44 -34.00156 -58.92324 21870 ft 397 kts 325°
2026-05-06 20:45 -33.97781 -58.94060 22221 ft 400 kts 325°
2026-05-06 20:45 -33.95393 -58.95809 22593 ft 402 kts 325°
2026-05-06 20:45 -33.93023 -58.97542 22974 ft 404 kts 325°
2026-05-06 20:45 -33.90616 -58.99301 23330 ft 406 kts 325°
2026-05-06 20:46 -33.88169 -59.01090 23689 ft 407 kts 325°
2026-05-06 20:46 -33.85772 -59.02840 24044 ft 408 kts 326°
2026-05-06 20:46 -33.83338 -59.04616 24380 ft 410 kts 326°
2026-05-06 20:46 -33.80893 -59.06399 24667 ft 412 kts 326°
2026-05-06 20:47 -33.78429 -59.08194 24980 ft 414 kts 325°
2026-05-06 20:47 -33.75962 -59.09990 25283 ft 416 kts 325°
2026-05-06 20:47 -33.73482 -59.11795 25582 ft 418 kts 325°
2026-05-06 20:47 -33.70996 -59.13603 25911 ft 418 kts 325°
2026-05-06 20:48 -33.68495 -59.15421 26179 ft 421 kts 325°
2026-05-06 20:48 -33.65988 -59.17241 26448 ft 422 kts 325°
2026-05-06 20:48 -33.63470 -59.19068 26722 ft 423 kts 325°
2026-05-06 20:48 -33.60941 -59.20902 26953 ft 426 kts 325°
2026-05-06 20:49 -33.58401 -59.22742 27231 ft 427 kts 325°
2026-05-06 20:49 -33.55857 -59.24586 27466 ft 428 kts 325°
2026-05-06 20:49 -33.53309 -59.26459 27697 ft 430 kts 324°
2026-05-06 20:49 -33.50797 -59.28332 27930 ft 431 kts 324°
2026-05-06 20:50 -33.48252 -59.30237 28274 ft 430 kts 324°
2026-05-06 20:50 -33.45724 -59.32130 28644 ft 428 kts 324°
2026-05-06 20:50 -33.43205 -59.34013 29001 ft 427 kts 324°
2026-05-06 20:50 -33.40687 -59.35893 29302 ft 426 kts 323°
2026-05-06 20:51 -33.38170 -59.37768 29631 ft 425 kts 323°
2026-05-06 20:51 -33.35656 -59.39639 29958 ft 425 kts 323°
2026-05-06 20:51 -33.33150 -59.41500 30287 ft 424 kts 323°
2026-05-06 20:51 -33.30641 -59.43362 30638 ft 422 kts 323°
2026-05-06 20:52 -33.28147 -59.45212 31005 ft 420 kts 323°
2026-05-06 20:52 -33.25668 -59.47048 31372 ft 418 kts 323°
2026-05-06 20:52 -33.23206 -59.48871 31712 ft 416 kts 322°
2026-05-06 20:52 -33.20747 -59.50691 32032 ft 414 kts 322°
2026-05-06 20:53 -33.18300 -59.52503 32341 ft 413 kts 322°
2026-05-06 20:53 -33.15898 -59.54279 32693 ft 410 kts 322°
2026-05-06 20:53 -33.13469 -59.56073 32966 ft 410 kts 321°
2026-05-06 20:53 -33.11046 -59.57863 33220 ft 409 kts 321°
2026-05-06 20:54 -33.08633 -59.59646 33553 ft 406 kts 321°
2026-05-06 20:54 -33.06242 -59.61410 33906 ft 403 kts 321°
2026-05-06 20:54 -33.03856 -59.63167 34195 ft 403 kts 321°
2026-05-06 20:54 -33.01477 -59.64920 34498 ft 400 kts 321°
2026-05-06 20:55 -32.99107 -59.66662 34794 ft 399 kts 320°
2026-05-06 20:55 -32.96746 -59.68397 35060 ft 397 kts 320°
2026-05-06 20:55 -32.94403 -59.70121 35323 ft 395 kts 320°
2026-05-06 20:55 -32.92071 -59.71835 35558 ft 393 kts 320°
2026-05-06 20:56 -32.89737 -59.73547 35703 ft 394 kts 319°
2026-05-06 20:56 -32.85079 -59.76963 35692 ft 396 kts 319°
2026-05-06 20:57 -32.80413 -59.80380 35698 ft 393 kts 319°
2026-05-06 20:57 -32.75774 -59.83776 35700 ft 390 kts 319°
2026-05-06 20:58 -32.71168 -59.87148 35702 ft 387 kts 319°
2026-05-06 20:58 -32.66582 -59.90493 35701 ft 386 kts 319°
2026-05-06 20:59 -32.61995 -59.93825 35708 ft 386 kts 319°
2026-05-06 20:59 -32.57437 -59.97143 35707 ft 388 kts 319°
2026-05-06 21:00 -32.52825 -60.00509 35702 ft 390 kts 319°
2026-05-06 21:00 -32.48188 -60.03887 35701 ft 392 kts 319°
2026-05-06 21:01 -32.43536 -60.07256 35692 ft 390 kts 319°
2026-05-06 21:01 -32.38875 -60.10584 35703 ft 392 kts 319°
2026-05-06 21:02 -32.34251 -60.13923 35705 ft 391 kts 319°
2026-05-06 21:02 -32.29627 -60.17298 35702 ft 390 kts 319°
2026-05-06 21:03 -32.24965 -60.20671 35705 ft 393 kts 319°
2026-05-06 21:03 -32.20311 -60.24054 35699 ft 393 kts 319°
2026-05-06 21:04 -32.15646 -60.27405 35700 ft 392 kts 319°
2026-05-06 21:04 -32.10980 -60.30743 35714 ft 391 kts 319°
2026-05-06 21:05 -32.07138 -60.33500 35704 ft 388 kts 319°
2026-05-06 21:05 -32.02593 -60.36823 35713 ft 383 kts 319°
2026-05-06 21:06 -31.98020 -60.40062 35713 ft 382 kts 319°
2026-05-06 21:06 -31.93497 -60.43233 35732 ft 380 kts 319°
2026-05-06 21:07 -31.88979 -60.46484 35734 ft 381 kts 319°
2026-05-06 21:07 -31.84430 -60.49766 35720 ft 384 kts 319°
2026-05-06 21:08 -31.79843 -60.53020 35718 ft 384 kts 319°
2026-05-06 21:08 -31.75286 -60.56318 35717 ft 385 kts 318°
2026-05-06 21:09 -31.70732 -60.59583 35704 ft 386 kts 319°
2026-05-06 21:09 -31.66103 -60.62832 35711 ft 388 kts 320°
2026-05-06 21:10 -31.61469 -60.66099 35701 ft 388 kts 319°
2026-05-06 21:10 -31.56861 -60.69379 35708 ft 387 kts 319°
2026-05-06 21:11 -31.52283 -60.72631 35704 ft 386 kts 319°
2026-05-06 21:11 -31.47683 -60.75885 35702 ft 386 kts 319°
2026-05-06 21:12 -31.43089 -60.79132 35703 ft 386 kts 319°
2026-05-06 21:12 -31.38494 -60.82375 35710 ft 385 kts 319°
2026-05-06 21:13 -31.33911 -60.85606 35695 ft 384 kts 319°
2026-05-06 21:13 -31.29328 -60.88827 35697 ft 384 kts 319°
2026-05-06 21:14 -31.24748 -60.92052 35691 ft 384 kts 319°
2026-05-06 21:14 -31.20178 -60.95270 35693 ft 384 kts 319°
2026-05-06 21:15 -31.15600 -60.98489 35694 ft 383 kts 320°
2026-05-06 21:15 -31.11056 -61.01667 35692 ft 384 kts 319°
2026-05-06 21:16 -31.06479 -61.04875 35695 ft 383 kts 319°
2026-05-06 21:16 -31.01907 -61.08101 35694 ft 382 kts 319°
2026-05-06 21:17 -30.97438 -61.11436 35690 ft 381 kts 318°
2026-05-06 21:17 -30.92975 -61.14790 35694 ft 381 kts 318°
2026-05-06 21:18 -30.88504 -61.18136 35694 ft 382 kts 318°
2026-05-06 21:18 -30.84053 -61.21454 35695 ft 382 kts 318°
2026-05-06 21:19 -30.79563 -61.24788 35683 ft 384 kts 318°
2026-05-06 21:19 -30.75056 -61.28133 35678 ft 384 kts 318°
2026-05-06 21:20 -30.70548 -61.31478 35673 ft 384 kts 318°
2026-05-06 21:20 -30.66042 -61.34813 35671 ft 383 kts 318°
2026-05-06 21:21 -30.61546 -61.38141 35676 ft 382 kts 318°
2026-05-06 21:21 -30.57084 -61.41441 35680 ft 382 kts 318°
2026-05-06 21:22 -30.52598 -61.44746 35683 ft 381 kts 318°
2026-05-06 21:22 -30.48117 -61.48049 35671 ft 381 kts 318°
2026-05-06 21:23 -30.43653 -61.51350 35677 ft 381 kts 318°
2026-05-06 21:23 -30.39166 -61.54646 35676 ft 382 kts 318°
2026-05-06 21:24 -30.34682 -61.57940 35674 ft 381 kts 318°
2026-05-06 21:24 -30.30223 -61.61215 35672 ft 381 kts 318°
2026-05-06 21:25 -30.25735 -61.64507 35679 ft 381 kts 318°
2026-05-06 21:25 -30.21252 -61.67789 35679 ft 381 kts 318°
2026-05-06 21:26 -30.16776 -61.71066 35681 ft 381 kts 318°
2026-05-06 21:26 -30.12325 -61.74320 35684 ft 381 kts 318°
2026-05-06 21:27 -30.07838 -61.77596 35686 ft 381 kts 318°
2026-05-06 21:27 -30.03365 -61.80857 35683 ft 380 kts 318°
2026-05-06 21:28 -29.98890 -61.84119 35683 ft 380 kts 318°
2026-05-06 21:28 -29.94413 -61.87379 35685 ft 380 kts 318°
2026-05-06 21:29 -29.89951 -61.90623 35683 ft 379 kts 318°
2026-05-06 21:29 -29.85445 -61.93747 35683 ft 383 kts 321°
2026-05-06 21:30 -29.80736 -61.96646 35681 ft 384 kts 322°
2026-05-06 21:30 -29.76004 -61.99534 35686 ft 384 kts 322°
2026-05-06 21:31 -29.71323 -62.02403 35684 ft 384 kts 322°
2026-05-06 21:31 -29.66611 -62.05298 35683 ft 383 kts 322°
2026-05-06 21:32 -29.61905 -62.08191 35683 ft 383 kts 322°
2026-05-06 21:32 -29.54843 -62.12526 35686 ft 384 kts 322°
2026-05-06 21:33 -29.50117 -62.15426 35686 ft 385 kts 322°
2026-05-06 21:33 -29.45394 -62.18319 35684 ft 385 kts 322°
2026-05-06 21:34 -29.40658 -62.21218 35681 ft 386 kts 322°
2026-05-06 21:34 -29.35905 -62.24123 35685 ft 387 kts 322°
2026-05-06 21:35 -29.31150 -62.27026 35684 ft 388 kts 322°
2026-05-06 21:35 -29.26377 -62.29937 35689 ft 389 kts 322°
2026-05-06 21:36 -29.21602 -62.32847 35679 ft 389 kts 322°
2026-05-06 21:36 -29.16845 -62.35743 35688 ft 390 kts 322°
2026-05-06 21:37 -29.12051 -62.38656 35685 ft 390 kts 322°
2026-05-06 21:37 -29.07254 -62.41569 35684 ft 390 kts 322°
2026-05-06 21:38 -29.02449 -62.44482 35685 ft 390 kts 322°
2026-05-06 21:38 -28.97677 -62.47377 35682 ft 390 kts 322°
2026-05-06 21:39 -28.92873 -62.50286 35681 ft 391 kts 322°
2026-05-06 21:39 -28.88068 -62.53193 35684 ft 391 kts 322°
2026-05-06 21:40 -28.83256 -62.56100 35681 ft 391 kts 323°
2026-05-06 21:40 -28.78429 -62.58997 35686 ft 392 kts 323°
2026-05-06 21:41 -28.73621 -62.61872 35684 ft 393 kts 323°
2026-05-06 21:41 -28.68779 -62.64767 35685 ft 393 kts 323°
2026-05-06 21:42 -28.63929 -62.67663 35682 ft 393 kts 323°
2026-05-06 21:42 -28.59079 -62.70558 35676 ft 394 kts 323°
2026-05-06 21:43 -28.54226 -62.73451 35675 ft 394 kts 323°
2026-05-06 21:43 -28.49349 -62.76354 35673 ft 395 kts 323°
2026-05-06 21:44 -28.44504 -62.79237 35674 ft 395 kts 323°
2026-05-06 21:44 -28.39629 -62.82135 35675 ft 395 kts 323°
2026-05-06 21:45 -28.34751 -62.85031 35675 ft 395 kts 323°
2026-05-06 21:45 -28.29878 -62.87920 35673 ft 395 kts 323°
2026-05-06 21:46 -28.24999 -62.90810 35674 ft 395 kts 323°
2026-05-06 21:46 -28.20122 -62.93697 35674 ft 395 kts 323°
2026-05-06 21:47 -28.15243 -62.96582 35668 ft 395 kts 323°
2026-05-06 21:47 -28.10370 -62.99460 35667 ft 395 kts 323°
2026-05-06 21:48 -28.05501 -63.02333 35662 ft 395 kts 323°
2026-05-06 21:48 -28.00632 -63.05203 35663 ft 394 kts 323°
2026-05-06 21:49 -27.95795 -63.08052 35657 ft 395 kts 323°
2026-05-06 21:49 -27.90913 -63.10924 35668 ft 396 kts 324°
2026-05-06 21:50 -27.86015 -63.13802 35667 ft 397 kts 324°
2026-05-06 21:50 -27.81091 -63.16694 35668 ft 399 kts 324°
2026-05-06 21:51 -27.76179 -63.19575 35670 ft 401 kts 324°
2026-05-06 21:51 -27.71224 -63.22477 35663 ft 402 kts 324°
2026-05-06 21:52 -27.66256 -63.25386 35666 ft 402 kts 324°
2026-05-06 21:52 -27.61286 -63.28291 35664 ft 402 kts 324°
2026-05-06 21:53 -27.56313 -63.31195 35666 ft 402 kts 324°
2026-05-06 21:53 -27.51347 -63.34090 35666 ft 402 kts 324°
2026-05-06 21:54 -27.46390 -63.36978 35673 ft 400 kts 324°
2026-05-06 21:54 -27.41443 -63.39859 35676 ft 399 kts 324°
2026-05-06 21:55 -27.37343 -63.42243 35685 ft 399 kts 324°
2026-05-06 21:55 -27.32419 -63.45105 35683 ft 398 kts 324°
2026-05-06 21:56 -27.27495 -63.47965 35686 ft 398 kts 324°
2026-05-06 21:56 -27.22563 -63.50825 35685 ft 398 kts 324°
2026-05-06 21:57 -27.17663 -63.53668 35683 ft 399 kts 324°
2026-05-06 21:57 -27.12717 -63.56530 35684 ft 400 kts 324°
2026-05-06 21:58 -27.07754 -63.59400 35685 ft 401 kts 324°
2026-05-06 21:58 -27.02778 -63.62273 35688 ft 402 kts 324°
2026-05-06 21:59 -26.97796 -63.65143 35691 ft 403 kts 324°
2026-05-06 21:59 -26.92785 -63.68010 35698 ft 404 kts 324°
2026-05-06 22:00 -26.87768 -63.70883 35693 ft 405 kts 324°
2026-05-06 22:00 -26.82746 -63.73756 35693 ft 406 kts 324°
2026-05-06 22:01 -26.77717 -63.76632 35706 ft 406 kts 324°
2026-05-06 22:01 -26.72679 -63.79510 35712 ft 406 kts 324°
2026-05-06 22:02 -26.67670 -63.82364 35710 ft 407 kts 324°
2026-05-06 22:02 -26.62617 -63.85231 35721 ft 407 kts 324°
2026-05-06 22:03 -26.57560 -63.88096 35725 ft 408 kts 324°
2026-05-06 22:03 -26.52509 -63.90956 35750 ft 407 kts 324°
2026-05-06 22:04 -26.47444 -63.93825 35763 ft 408 kts 324°